Погода в Онеге

Погода в Онеге : погода сейчас, прогноз погоды и архив. Всё, что Вы хотите узнать о погоде в Онеге!

Хотите узнать прогноз погоды в Онеге? Тогда Вам сюда: Погода в Онеге

Поиск расширенной информации на нашем сайте:

Полезная информация: Монтаж систем отопления Раменское

Другие новости

Новости СМИ2

Главная страница сайта

Новости сайта

03.07.2017

Напоминаем, что на нашем специализированном сайте Метеоцентр.Азия вы можете получить высокодетализированные автоматические прогнозы погоды по пунктам России, СНГ и мира в авиационном формате (включающие направление и скорость ветра, видимость, явления погоды, количество и форму облачности, нижнюю и верхнюю границу облачности).

Рекомендуем: фальцевая кровля из рулонного материала.

Погода в Онеге - сегодня

Время (UTC), дата Ветер
(°,м/с) 
Видим.   Явления Облачность Т
(°С)
Тd
(°С)
f(%) Тe
(°С)
Pmin
(гПа)
dP
(гПа)
Po
(мм)
O2
(г/м3)
Тmin Tmax R s Состояние
почвы
15 19.07.17 040 (СВ) 20000 м    10/3 1000 м кучево-дожд., средняя, верхняя 
[Cb cap|Ac cuf|Ci ing]
+17.2 +10.9 66 +21  1008.8  -0.3  756  284    +20.7       
18 19.07.17 130 (ЮВ) 20000 м  гроза, ливневой дождь  10/5 300 м кучево-дожд., средняя, верхняя 
[Cb calv|Ac lent|Ci sp]
+16 +11.7 76 +19  1009  0.2  756  285           
21 19.07.17 200 (Ю) 20000 м  слаб. ливневой дождь{гроза}  10/9 720 м кучево-дожд., средняя 
[Cb cap|Ac lent]
+12.4 +11.6 95 +17  1008.5  -0.5  755  289           
00 20.07.17 210 (ЮЗ) 20000 м  {гроза, ливн. осадки}  10/10 1300 м кучево-дожд. 
[Cb cap]
+12 +11.2 95 +16  1008  -0.5  755  289           
03 20.07.17 190 (Ю) 20000 м  слаб. ливневой дождь  10/9 270 м кучево-дожд., средняя 
[Cb cap|Ac lent]
+12.9 +12 94 +18  1007.8  -0.2  755  288  +11.7    11    влажная 
06 20.07.17 310 (СЗ) 20000 м  {ливн. осадки}  10/4 300 м кучево-дожд., средняя 
[Cb cap|Ac cast]
+12.9 +11.6 92 +16  1008.2  0.4  755  288           
09 20.07.17 300 (СЗ) 20000 м  в посл. час ливневой дождь  10/8 630 м кучево-дожд., средняя 
[Cb cap|Ac cast]
+13.3 +11.8 91 +18  1009.1  0.9  756  288           
12 20.07.17 290 (З) 20000 м  в посл. час ливневой дождь  8/4 600 м кучево-дожд., средняя 
[Cb cap|Ac cast]
+15.7 +11.6 77 +19  1009.4  0.2  756  286           
15 20.07.17 020 (С) 20000 м    8/4 1000 м кучево-дожд., средняя, верхняя 
[Cb cap|Ac cast|Ci fib]
+15.2 +11.3 78 +20  1009.9  0.5  756  287    +17.1     
18 20.07.17 тихо ()   20000 м    8/4 600 м кучево-дожд., средняя 
[Cb cap|Ac cast]
+13.5 +11.7 89 +17  1010.6  0.8  757  288           
21 20.07.17 240 (ЮЗ) 20000 м    9/3 600 м кучево-дожд., средняя 
[Cb cap|Ac cast]
+11.9 +10.2 89 +14  1011.2  0.5  757  291           
00 21.07.17 200 (Ю) 20000 м    10/4 600 м кучево-дожд., средняя 
[Cb cap|Ac cast]
+11.4 +10.1 92 +14  1011.9  0.7  758  291           
03 21.07.17 230 (ЮЗ) 20000 м  {ливн. осадки}  10/4 600 м кучево-дожд., средняя 
[Cb cap|Ac cast]
+12.2 +10.6 90 +15  1012.5  0.6  758  291  +11.2    0.4    влажная 
06 21.07.17 320 (СЗ) 20000 м  {ливн. осадки}  10/4 600 м кучево-дожд., средняя 
[Cb cap|Ac As]
+14.8 +11.9 83 +20  1013.3  0.9  759  288           
09 21.07.17 340 (С) 20000 м    5/3 600 м кучево-дожд., средняя 
[Cb cap|Ac trans]
+16.4 +11.4 72 +20  1014.2  0.8  760  287           
12 21.07.17 350 (С) 20000 м    6/3 600 м кучево-дожд., средняя 
[Cb cap|Ac trans]
+16.8 +12 73 +21  1015.2  760  286           
15 21.07.17 350 (С) 20000 м    3/1 1000 м средняя 
[Cu med, cong|Ac trans]
+15.8 +10.6 71 +18  1015.3  0.2  760  288    +17.4       
18 21.07.17 290 (З) 20000 м    3/1 1000 м средняя 
[Cu med, cong|Ac trans]
+14.6 +11.5 82 +19  1015.7  0.4  761  289           
21 21.07.17 060 (СВ) 20000 м    1/0 средняя 
[Ac trans]
+11.9 +10.8 93 +14  1016.5  0.7  761  292           
00 22.07.17 030 (СВ) 20000 м    3/0 верхняя 
[Ci fib]
+9.9 +8.5 91 +11  1017  0.5  762  295           
03 22.07.17 030 (СВ) 20000 м    3/0 средняя, верхняя 
[Ac trans|Ci fib]
+11.4 +9.5 88 +12  1017.3  0.2  762  293  +9.5        влажная 
06 22.07.17 010 (С) 20000 м    6/3 600 м верхняя 
[Cu Sc|Ci fib]
+15.3 +10.8 75 +17  1017.6  0.4  762  289           
09 22.07.17 010 (С) 20000 м    10/8 630 м средняя, верхняя 
[Sc|Ac trans|Ci fib]
+15.7 +11.5 76 +19  1017.6  762  288           
12 22.07.17 350 (С) 4{11}  20000 м    10/4 600 м кучево-дожд., верхняя 
[Cb cap|Cs]
+15.7 +12.3 80 +20  1016.6  -1  761  288           
15 22.07.17 020 (С) 20000 м  слаб. ливневой дождь  10/5 600 м кучево-дожд., средняя 
[Cb cap|Ac As]
+16 +13.4 85 +23  1015.4  -1.1  761  287    +17.2  0.3     
Время (UTC), дата Ветер
(°,м/с) 
Видим.   Явления Облачность Т
(°С)
Тd
(°С)
f(%) Тe
(°С)
Pmin
(гПа)
dP
(гПа)
Po
(мм)
O2
(г/м3)
Тmin Tmax R s Состояние
почвы

Для получения пояснительной информации подведите курсор к названию столбца.

ПОГОДА в Онеге - архив

Всё, что Вы хотите узнать о погоде в Онеге - удобно и подробно!

Выберите нужную дату (начиная с 1 января 2015* года) и нажмите кнопку "Найти".
Будут отображены архивные сводки погоды по пункту Онега, начиная с указанной даты.


Отображать данные в формате CSV (для использования в таблицах Excel)


Внимание! Наш архив погоды предназначен исключительно для личного некоммерческого использования в познавательных целях. Если Вам необходимы официальные справки о состоянии погоды (для производственных, юридических, коммерческих и т.п. целей), обращайтесь в органы Росгидромета.

*Примечание: данная дата относится к архиву по метеостанциям СССР (Россия, СНГ, Балтия).
Архив по метеостанциям Зарубежной Европы и Азии (кроме Китая) хранится 10 дней, по другим регионам земного шара (Китай, Африка, Америка, Австралия, Океания) - 1 день.

Онега - район местоположения метеостанции


Название, широта, долгота, высота метеостанции:
Онега 63.9°ш. 38.1°д. 13 м над ур. моря [Российская Федерация]

Дополнительная информация

В oтличие oт бoльшинства пoгoдных сайтoв мы публикуем пoдрoбную метеoинфoрмацию в детальнoм прoфессиoнальнoм фoрмате.

Характеристики температуры и влажнoсти вoздуха измеряются на высoте 2 м в тени вдали oт зданий и деревьев.
Скoрoсть ветра измеряется на высoте 10 м (на урoвне рoста челoвека скoрoсть ветра ниже в 1.5-2 раза). Если метеoстанция нахoдится в гoрoде или в лесу, тo скoрoсть ветра занижена на 2-4 м/с пo сравнению с oткрытым местoм. Скoрoсть ветра над акватoриями крупных рек и oзёр, а также на вершинах хoлмoв на 2-5 м/с выше, чем в oбычных услoвиях.
Атмoсфернoе давление в разных тoчках местнoсти мoжет значительнo oтличаться oт давления на метеoстанции, в зависимoсти oт услoвий рельефа (при пoдъёме на 10 м давление пoнижается примернo на 1 мм рт.ст.).